Hourly Weather Kitob

Today, 2 August, Monday

Time Temperature Precipitation Wind Pressure Humidity
00:00 +28°C° 0 mm 2 mps 698 mmHg 26%
01:00 +28°C° 0 mm 2 mps 698 mmHg 27%
02:00 +28°C° 0 mm 2 mps 698 mmHg 27%
03:00 +28°C° 0 mm 2 mps 698 mmHg 28%
04:00 +28°C° 0 mm 2 mps 698 mmHg 29%
05:00 +29°C° 0 mm 1 mps 698 mmHg 26%
06:00 +31°C° 0 mm 1 mps 699 mmHg 23%
07:00 +31°C° 0 mm 0 mps 699 mmHg 20%
08:00 +34°C° 0 mm 1 mps 699 mmHg 18%
09:00 +37°C° 0 mm 3 mps 699 mmHg 17%
10:00 +38°C° 0 mm 4 mps 699 mmHg 15%
11:00 +40°C° 0 mm 4 mps 699 mmHg 14%
12:00 +41°C° 0 mm 4 mps 699 mmHg 13%
13:00 +42°C° 0 mm 4 mps 699 mmHg 13%
14:00 +41°C° 0 mm 4 mps 699 mmHg 13%
15:00 +41°C° 0 mm 4 mps 698 mmHg 12%
16:00 +41°C° 0 mm 4 mps 698 mmHg 12%
17:00 +38°C° 0 mm 3 mps 698 mmHg 14%
18:00 +36°C° 0 mm 3 mps 698 mmHg 16%
19:00 +34°C° 0 mm 2 mps 698 mmHg 17%
20:00 +32°C° 0 mm 2 mps 698 mmHg 18%
21:00 +31°C° 0 mm 2 mps 698 mmHg 19%
22:00 +30°C° 0 mm 2 mps 698 mmHg 19%
23:00 +30°C° 0 mm 2 mps 698 mmHg 20%

Tomorrow, 3 August, Tuesday

Time Temperature Precipitation Wind Pressure Humidity
00:00 +30°C° 0 mm 2 mps 698 mmHg 21%
01:00 +29°C° 0 mm 2 mps 698 mmHg 22%
02:00 +29°C° 0 mm 2 mps 698 mmHg 22%
03:00 +29°C° 0 mm 2 mps 698 mmHg 22%
04:00 +28°C° 0 mm 2 mps 698 mmHg 23%
05:00 +30°C° 0 mm 1 mps 699 mmHg 20%
06:00 +32°C° 0 mm 1 mps 699 mmHg 18%
07:00 +32°C° 0 mm 0 mps 700 mmHg 16%
08:00 +36°C° 0 mm 1 mps 700 mmHg 14%
09:00 +38°C° 0 mm 2 mps 700 mmHg 12%
10:00 +40°C° 0 mm 3 mps 700 mmHg 11%
11:00 +40°C° 0 mm 3 mps 700 mmHg 10%
12:00 +42°C° 0 mm 4 mps 700 mmHg 10%
13:00 +43°C° 0 mm 4 mps 700 mmHg 9%
14:00 +43°C° 0 mm 4 mps 699 mmHg 9%
15:00 +43°C° 0 mm 5 mps 699 mmHg 9%
16:00 +42°C° 0 mm 5 mps 699 mmHg 9%
17:00 +40°C° 0 mm 4 mps 699 mmHg 11%
18:00 +37°C° 0 mm 4 mps 699 mmHg 12%
19:00 +35°C° 0 mm 4 mps 699 mmHg 14%
20:00 +34°C° 0 mm 4 mps 699 mmHg 14%
21:00 +33°C° 0 mm 4 mps 699 mmHg 15%
22:00 +32°C° 0 mm 4 mps 699 mmHg 16%
23:00 +32°C° 0 mm 4 mps 699 mmHg 17%

Day after tomorrow, 4 August, Wednesday

Time Temperature Precipitation Wind Pressure Humidity
00:00 +30°C° 0 mm 3 mps 699 mmHg 18%
01:00 +30°C° 0 mm 3 mps 699 mmHg 19%
02:00 +30°C° 0 mm 3 mps 699 mmHg 20%
03:00 +29°C° 0 mm 3 mps 699 mmHg 20%
04:00 +29°C° 0 mm 3 mps 699 mmHg 21%
05:00 +31°C° 0 mm 3 mps 700 mmHg 19%
06:00 +34°C° 0 mm 2 mps 700 mmHg 17%
07:00 +36°C° 0 mm 2 mps 701 mmHg 15%
08:00 +37°C° 0 mm 2 mps 701 mmHg 13%
09:00 +39°C° 0 mm 3 mps 701 mmHg 11%
10:00 +41°C° 0 mm 4 mps 701 mmHg 10%
11:00 +42°C° 0 mm 5 mps 701 mmHg 9%
12:00 +43°C° 0 mm 5 mps 700 mmHg 8%
13:00 +44°C° 0 mm 6 mps 700 mmHg 8%
14:00 +44°C° 0 mm 6 mps 700 mmHg 8%
15:00 +44°C° 0 mm 7 mps 700 mmHg 8%
16:00 +43°C° 0 mm 7 mps 700 mmHg 8%
17:00 +40°C° 0 mm 6 mps 700 mmHg 10%
18:00 +37°C° 0 mm 5 mps 700 mmHg 11%
19:00 +35°C° 0 mm 4 mps 700 mmHg 13%
20:00 +34°C° 0 mm 4 mps 700 mmHg 14%
21:00 +33°C° 0 mm 3 mps 700 mmHg 14%
22:00 +31°C° 0 mm 3 mps 700 mmHg 15%
23:00 +31°C° 0 mm 3 mps 700 mmHg 16%

5 August, Thursday

Time Temperature Precipitation Wind Pressure Humidity
00:00 +30°C° 0 mm 4 mps 700 mmHg 18%
01:00 +29°C° 0 mm 4 mps 700 mmHg 19%
02:00 +29°C° 0 mm 4 mps 700 mmHg 20%
03:00 +29°C° 0 mm 4 mps 700 mmHg 21%
04:00 +29°C° 0 mm 3 mps 700 mmHg 21%
05:00 +31°C° 0 mm 3 mps 700 mmHg 19%
06:00 +34°C° 0 mm 2 mps 700 mmHg 17%
07:00 +36°C° 0 mm 2 mps 700 mmHg 15%
08:00 +37°C° 0 mm 2 mps 700 mmHg 14%
09:00 +39°C° 0 mm 3 mps 700 mmHg 13%
10:00 +40°C° 0 mm 3 mps 700 mmHg 11%
11:00 +42°C° 0 mm 4 mps 700 mmHg 11%
12:00 +43°C° 0 mm 4 mps 700 mmHg 10%
13:00 +43°C° 0 mm 4 mps 699 mmHg 9%
14:00 +43°C° 0 mm 5 mps 699 mmHg 9%
15:00 +44°C° 0 mm 6 mps 699 mmHg 10%
16:00 +43°C° 0 mm 7 mps 699 mmHg 10%
17:00 +40°C° 0 mm 5 mps 699 mmHg 11%
18:00 +37°C° 0 mm 4 mps 699 mmHg 13%
19:00 +34°C° 0 mm 3 mps 699 mmHg 15%
20:00 +33°C° 0 mm 3 mps 699 mmHg 16%
21:00 +33°C° 0 mm 3 mps 699 mmHg 17%
22:00 +31°C° 0 mm 2 mps 699 mmHg 18%
23:00 +30°C° 0 mm 3 mps 698 mmHg 19%

6 August, Friday

Time Temperature Precipitation Wind Pressure Humidity
00:00 +30°C° 0 mm 3 mps 698 mmHg 20%
01:00 +29°C° 0 mm 3 mps 698 mmHg 21%
02:00 +29°C° 0 mm 3 mps 698 mmHg 22%
03:00 +29°C° 0 mm 3 mps 698 mmHg 22%
04:00 +28°C° 0 mm 3 mps 698 mmHg 23%
05:00 +30°C° 0 mm 3 mps 698 mmHg 21%
06:00 +33°C° 0 mm 3 mps 698 mmHg 19%
07:00 +35°C° 0 mm 2 mps 699 mmHg 17%
08:00 +37°C° 0 mm 3 mps 699 mmHg 16%
09:00 +38°C° 0 mm 3 mps 699 mmHg 15%
10:00 +40°C° 0 mm 4 mps 699 mmHg 14%
11:00 +41°C° 0 mm 5 mps 699 mmHg 13%
12:00 +41°C° 0 mm 6 mps 699 mmHg 13%
13:00 +42°C° 0 mm 6 mps 699 mmHg 13%
14:00 +41°C° 0 mm 6 mps 699 mmHg 14%
15:00 +41°C° 0 mm 6 mps 699 mmHg 15%
16:00 +40°C° 0 mm 6 mps 699 mmHg 16%
17:00 +37°C° 0 mm 5 mps 699 mmHg 19%
18:00 +34°C° 0 mm 5 mps 699 mmHg 22%
19:00 +32°C° 0 mm 4 mps 699 mmHg 25%
20:00 +32°C° 0 mm 4 mps 699 mmHg 25%
21:00 +30°C° 0 mm 4 mps 699 mmHg 26%
22:00 +30°C° 0 mm 4 mps 699 mmHg 26%
23:00 +29°C° 0 mm 4 mps 699 mmHg 26%

7 August, Saturday

Time Temperature Precipitation Wind Pressure Humidity
00:00 +29°C° 0 mm 3 mps 699 mmHg 26%
01:00 +29°C° 0 mm 3 mps 699 mmHg 25%
02:00 +29°C° 0 mm 3 mps 699 mmHg 25%
03:00 +28°C° 0 mm 3 mps 699 mmHg 25%
04:00 +28°C° 0 mm 3 mps 699 mmHg 25%
05:00 +30°C° 0 mm 3 mps 700 mmHg 22%
06:00 +33°C° 0 mm 3 mps 700 mmHg 20%
07:00 +35°C° 0 mm 3 mps 701 mmHg 17%
08:00 +36°C° 0 mm 3 mps 701 mmHg 16%
09:00 +38°C° 0 mm 4 mps 701 mmHg 14%
10:00 +41°C° 0 mm 4 mps 701 mmHg 12%
11:00 +41°C° 0 mm 4 mps 701 mmHg 12%
12:00 +42°C° 0 mm 5 mps 701 mmHg 11%
13:00 +43°C° 0 mm 5 mps 701 mmHg 10%
14:00 +44°C° 0 mm 6 mps 701 mmHg 10%
15:00 +44°C° 0 mm 7 mps 700 mmHg 10%
16:00 +43°C° 0 mm 7 mps 700 mmHg 10%
17:00 +40°C° 0 mm 6 mps 700 mmHg 11%
18:00 +37°C° 0 mm 5 mps 700 mmHg 12%
19:00 +34°C° 0 mm 4 mps 700 mmHg 14%
20:00 +34°C° 0 mm 4 mps 700 mmHg 14%
21:00 +33°C° 0 mm 4 mps 700 mmHg 15%
22:00 +32°C° 0 mm 4 mps 700 mmHg 15%
23:00 +32°C° 0 mm 4 mps 700 mmHg 16%
Show more